User: anonymous   Login
Location: Unspecified
(0.0000°N, 0.0000°E)
Time: 01:29:08
(UTC+00:00)
Language:

LAPAN-TUBSAT - Orbit

View from above orbital plane
View from above orbital plane
View from above satellite
View from above satellite

Ground track
Ground track

The orbit data is extracted from the following two-line orbital elements,

1 29709U 07001A   17266.56259206  .00000050  00000-0  12685-4 0  9993
2 29709  97.7143 237.7756 0013950 125.8617 234.3880 14.82077670578555
Epoch (UTC): 23 September 2017 13:30:07
Eccentricity: 0.0013950
inclination: 97.7143°
perigee height: 613 km
apogee height: 632 km
right ascension of ascending node: 237.7756°
argument of perigee: 125.8617°
revolutions per day: 14.82077670
mean anomaly at epoch: 234.3880°
orbit number at epoch: 57855

The dashed part of the orbit path shows where the satellite is in the earth's shadow,  

DLR